Simultaneous Nadir Overpasses (SNOs) Predictions

Prediction of SNOs between LANDSAT-8 and NOAA-19 Satellite Orbit:

Table of predicted SNOs for the next 14.0 days since TLE Epoch: 11/5/2016
Index Date (LANDSAT-8) Time (LANDSAT-8) Lat,Lon (LANDSAT-8) SZA (LANDSAT-8 ) Date (NOAA-19) Time (NOAA-19) Lat,Lon (NOAA-19) SZA (NOAA-19 ) Distance(km) Time Diff (sec)
1 11/05/2016 05:05:51 -75.32, -70.09 88.73 11/05/2016 05:05:21 -75.31, -70.16 88.75 2.35 30
2 11/05/2016 05:55:19 75.20, 97.23 91.15 11/05/2016 05:56:26 75.21, 97.36 91.19 3.89 67
3 11/07/2016 10:39:34 75.31, 26.46 91.92 11/07/2016 10:39:25 75.31, 26.37 91.92 2.30 9
4 11/07/2016 11:29:04 -75.18,-166.25 88.21 11/07/2016 11:30:17 -75.18,-165.96 88.18 8.49 73
5 11/09/2016 15:23:40 75.86, -43.03 93.17 11/09/2016 15:22:35 75.91, -46.33 93.07 89.66 65
6 11/09/2016 16:13:19 -75.29, 122.96 87.47 11/09/2016 16:13:16 -75.29, 123.04 87.46 2.09 3
7 11/11/2016 20:57:31 -75.54, 52.59 86.58 11/11/2016 20:56:20 -75.62, 51.26 86.57 37.94 71
8 11/11/2016 21:47:01 75.32,-140.39 93.18 11/11/2016 21:47:20 75.30,-140.46 93.17 2.90 19
9 11/14/2016 02:31:17 75.36, 148.67 93.81 11/14/2016 02:30:18 75.37, 148.63 93.81 1.18 59
10 11/14/2016 03:20:46 -75.29, -43.89 86.26 11/14/2016 03:21:11 -75.28, -43.81 86.27 2.55 25
11 11/16/2016 08:05:02 -75.34,-114.84 85.66 11/16/2016 08:04:09 -75.35,-114.71 85.66 3.68 53
12 11/16/2016 08:54:28 75.31, 52.72 94.32 11/16/2016 08:55:15 75.31, 52.62 94.33 3.02 47
13 11/18/2016 13:38:44 75.34,
